San Jose, Costa Rica

3:22 AM CST on November 19, 2017 (GMT -0600)
Juan Santamaria International

Weather History for MROC - August, 2013

Change the Weather History Date:

Monday, August 19, 2013

  Actual Average Record
Temperature  
Mean Temperature 74 °F -  
Max Temperature 84 °F 79 °F 87 °F (1997)
Min Temperature 63 °F 63 °F 60 °F (1999)
Cooling Degree Days 8    
Growing Degree Days 24 (Base 50)    
Moisture  
Dew Point 65 °F    
Average Humidity 78    
Maximum Humidity 94    
Minimum Humidity 44    
Precipitation  
Precipitation 0.00 in 0.43 in - ()
Sea Level Pressure  
Sea Level Pressure 29.94 in    
Wind  
Wind Speed 6 mph ()    
Max Wind Speed 18 mph    
Max Gust Speed -    
Visibility 8.2 miles    
Events Rain , Thunderstorm    
Averages and records for this station are not official NWS values.
T = Trace of Precipitation, MM = Missing Value Source: Averaged Metar Reports

Daily Weather History Graph

Daily Weather History Graph

Search for Another Location

Airport or City:

Trip Planner

Search our weather history database for the weather conditions in past years. The results will help you decide how hot, cold, wet, or windy it might be!

Date:

Astronomy

Aug. 19, 2013 Rise Set
Actual Time 5:27 AM CST 5:52 PM CST
Civil Twilight 5:06 AM CST 6:14 PM CST
Nautical Twilight 4:41 AM CST 6:39 PM CST
Astronomical Twilight 4:15 AM CST 7:04 PM CST
Moon 4:42 PM CST 3:52 AM CST
Length of Visible Light 13h 07m
Length of Day
12h 24m
Waxing Gibbous, 97% of the Moon is Illuminated
Aug 19
Waxing Gibbous
Aug 20
Full
Aug 28
Last Quarter
Sep 5
New
Sep 12
First Quarter

Hourly Weather History & Observations

Time (CST) Temp. Heat Index Dew Point Humidity Pressure Visibility Wind Dir Wind Speed Gust Speed Precip Events Conditions
12:00 AM 70 °F - 64 °F 77% 29.82 in 12 mi ENE 6.9 mph - -   Clear
12:00 AM 69.8 °F - 64.4 °F 83% 30.03 in - ENE 6.9 mph - N/A   Clear
1:00 AM 69.8 °F - 62.6 °F 78% 30.00 in - East 5.8 mph - N/A   Clear
2:00 AM 69.8 °F - 62.6 °F 78% 29.99 in - NNE 4.6 mph - N/A   Clear
3:00 AM 67 °F - 62 °F 80% 29.84 in 12 mi NE 4.6 mph - -  
3:00 AM 66.2 °F - 62.6 °F 88% 29.99 in - NE 4.6 mph - N/A   Clear
4:00 AM 68.0 °F - 62.6 °F 83% 29.97 in - NE 8.1 mph - N/A   Clear
5:00 AM 66.2 °F - 60.8 °F 83% 29.98 in - NE 2.3 mph - N/A   Clear
6:00 AM 66 °F - 61 °F 80% 29.87 in 12 mi NE 3.5 mph - -  
6:00 AM 66.2 °F - 60.8 °F 83% 29.99 in - NE 3.5 mph - N/A   Clear
7:00 AM 71.6 °F - 62.6 °F 73% 30.01 in - North 2.3 mph - N/A   Clear
8:00 AM 77.0 °F - 62.6 °F 61% 30.01 in - NNE 2.3 mph - N/A   Clear
9:00 AM 80 °F - 62 °F 44% 29.84 in 12 mi ESE 6.9 mph - -   Scattered Clouds
9:00 AM 80.6 °F 81.8 °F 62.6 °F 54% 30.00 in 6.2 mi ESE 6.9 mph - N/A   Partly Cloudy
10:00 AM 82.4 °F 82.9 °F 60.8 °F 48% 30.01 in 6.2 mi ESE 6.9 mph - N/A   Partly Cloudy
11:00 AM 78.8 °F - 68.0 °F 69% 30.01 in 6.2 mi WSW 8.1 mph - N/A   Scattered Clouds
12:00 PM 80 °F - 69 °F 62% 29.81 in 12 mi SW 8.1 mph - -   Partly Cloudy
12:00 PM 80.6 °F 83.9 °F 69.8 °F 70% 29.98 in 6.2 mi SW 8.1 mph - N/A   Scattered Clouds
1:00 PM 80.6 °F 83.9 °F 69.8 °F 70% 29.96 in - North - - N/A   Scattered Clouds
2:00 PM 78.8 °F - 69.8 °F 74% 29.93 in 6.2 mi WSW 10.4 mph - N/A   Scattered Clouds
3:00 PM 73 °F - 70 °F 87% 29.78 in 5 mi SW 18.4 mph - - Rain , Thunderstorm Thunderstorms and Rain
3:00 PM 73.4 °F - 69.8 °F 88% 29.92 in 5.0 mi SW 18.4 mph - N/A Rain , Thunderstorm Light Thunderstorms and Rain
4:00 PM 73.4 °F - 66.2 °F 78% 29.93 in 6.2 mi SSE 10.4 mph - N/A Thunderstorm Mostly Cloudy
5:00 PM 69.8 °F - 66.2 °F 88% 29.94 in 6.2 mi WNW 11.5 mph - N/A   Mostly Cloudy
6:00 PM 70 °F - 66 °F 85% 29.84 in 12 mi West 10.4 mph - -   Overcast
6:00 PM 69.8 °F - 66.2 °F 88% 29.96 in 6.2 mi West 10.4 mph - N/A   Mostly Cloudy
7:00 PM 69.8 °F - 66.2 °F 88% 29.98 in 6.2 mi NNW 3.5 mph - N/A   Mostly Cloudy
8:00 PM 69.8 °F - 66.2 °F 88% 29.98 in 6.2 mi North 5.8 mph - N/A   Mostly Cloudy
9:00 PM 69 °F - 66 °F 87% 29.85 in 12 mi Calm Calm - -   Clear
9:00 PM 69.8 °F - 66.2 °F 88% 30.00 in - Calm Calm - N/A   Clear
10:00 PM 69.8 °F - 66.2 °F 88% 30.01 in - NNW 3.5 mph - N/A   Clear
11:00 PM 68.0 °F - 66.2 °F 94% 30.01 in - ESE 3.5 mph - N/A   Clear